TimeMDT,TemperatureF,Dew PointF,Humidity,Sea Level PressureIn,VisibilityMPH,Wind Direction,Wind SpeedMPH,Gust SpeedMPH,PrecipitationIn,Events,Conditions,WindDirDegrees,DateUTC
12:53 AM,73.9,30.0,20,29.87,10.0,East,4.6,-,N/A,,Clear,90,2013-07-24 06:53:00
1:53 AM,70.0,33.1,26,29.88,10.0,Variable,3.5,-,N/A,,Clear,0,2013-07-24 07:53:00
2:53 AM,70.0,30.9,24,29.88,10.0,WSW,3.5,-,N/A,,Clear,240,2013-07-24 08:53:00
3:53 AM,69.1,28.9,22,29.88,10.0,SSE,5.8,-,N/A,,Clear,150,2013-07-24 09:53:00
4:53 AM,66.9,30.0,25,29.88,10.0,Calm,Calm,-,N/A,,Clear,0,2013-07-24 10:53:00
5:53 AM,64.0,32.0,30,29.91,10.0,Calm,Calm,-,N/A,,Clear,0,2013-07-24 11:53:00
6:53 AM,64.0,39.0,40,29.94,10.0,Calm,Calm,-,N/A,,Clear,0,2013-07-24 12:53:00
7:53 AM,64.9,39.0,39,29.96,10.0,NE,3.5,-,N/A,,Clear,40,2013-07-24 13:53:00
8:53 AM,70.0,39.0,32,29.97,10.0,Calm,Calm,-,N/A,,Clear,0,2013-07-24 14:53:00
9:53 AM,73.9,37.0,26,29.97,10.0,Calm,Calm,-,N/A,,Clear,0,2013-07-24 15:53:00
10:53 AM,78.1,37.0,23,29.97,10.0,West,3.5,-,N/A,,Clear,260,2013-07-24 16:53:00
11:53 AM,82.9,35.1,18,29.96,10.0,Variable,5.8,-,N/A,,Clear,0,2013-07-24 17:53:00
12:53 PM,84.0,39.9,21,29.96,10.0,South,27.6,35.7,N/A,,Scattered Clouds,170,2013-07-24 18:53:00
1:53 PM,86.0,42.1,21,29.95,10.0,SE,32.2,40.3,N/A,,Clear,140,2013-07-24 19:53:00
2:53 PM,84.9,43.0,23,29.93,10.0,SE,15.0,31.1,N/A,,Mostly Cloudy,140,2013-07-24 20:53:00
3:53 PM,84.9,41.0,21,29.89,10.0,SW,9.2,-,N/A,,Overcast,220,2013-07-24 21:53:00
4:53 PM,84.9,43.0,23,29.89,10.0,West,11.5,17.3,N/A,,Clear,270,2013-07-24 22:53:00
5:53 PM,86.0,43.0,22,29.88,10.0,North,4.6,-,N/A,,Partly Cloudy,350,2013-07-24 23:53:00
6:53 PM,86.0,43.0,22,29.86,10.0,Calm,Calm,-,N/A,,Partly Cloudy,0,2013-07-25 00:53:00
7:53 PM,82.9,46.0,27,29.87,10.0,NW,9.2,-,N/A,,Clear,310,2013-07-25 01:53:00
8:53 PM,79.0,46.0,31,29.87,10.0,NW,8.1,-,N/A,,Clear,320,2013-07-25 02:53:00
9:53 PM,77.0,46.0,33,29.89,10.0,East,9.2,-,N/A,,Clear,100,2013-07-25 03:53:00
10:53 PM,73.9,45.0,35,29.91,10.0,Calm,Calm,-,N/A,,Clear,0,2013-07-25 04:53:00
11:53 PM,70.0,44.1,39,29.91,10.0,SE,3.5,-,N/A,,Mostly Cloudy,140,2013-07-25 05:53:00